TimeMDT,TemperatureF,Dew PointF,Humidity,Sea Level PressureIn,VisibilityMPH,Wind Direction,Wind SpeedMPH,Gust SpeedMPH,PrecipitationIn,Events,Conditions,WindDirDegrees,DateUTC
12:15 AM,50.7,27.0,40,30.17,10.0,West,5.8,-,N/A,,Clear,270,2013-09-30 06:15:00
12:35 AM,47.3,28.2,48,30.17,10.0,West,10.4,-,N/A,,Clear,280,2013-09-30 06:35:00
12:55 AM,48.7,28.0,45,30.16,10.0,West,8.1,-,N/A,,Clear,280,2013-09-30 06:55:00
1:15 AM,45.5,28.4,51,30.17,10.0,WNW,9.2,-,N/A,,Clear,290,2013-09-30 07:15:00
1:35 AM,49.6,27.1,42,30.17,10.0,NW,10.4,-,N/A,,Clear,310,2013-09-30 07:35:00
1:55 AM,50.5,26.6,39,30.17,10.0,WNW,9.2,-,N/A,,Clear,290,2013-09-30 07:55:00
2:15 AM,51.3,26.6,38,30.17,10.0,WNW,9.2,-,N/A,,Clear,290,2013-09-30 08:15:00
2:35 AM,48.9,27.1,43,30.16,10.0,WNW,4.6,-,N/A,,Clear,300,2013-09-30 08:35:00
2:55 AM,45.0,28.0,52,30.16,10.0,NW,6.9,-,N/A,,Clear,320,2013-09-30 08:55:00
3:15 AM,44.6,28.2,53,30.16,10.0,NNW,4.6,-,N/A,,Clear,330,2013-09-30 09:15:00
3:35 AM,44.8,27.9,52,30.15,10.0,NW,4.6,-,N/A,,Clear,320,2013-09-30 09:35:00
3:55 AM,43.9,27.5,53,30.15,10.0,NW,4.6,-,N/A,,Clear,310,2013-09-30 09:55:00
4:15 AM,43.9,27.5,53,30.15,10.0,WNW,4.6,-,N/A,,Clear,290,2013-09-30 10:15:00
4:35 AM,45.0,27.0,49,30.15,10.0,Calm,Calm,-,N/A,,Clear,0,2013-09-30 10:35:00
4:55 AM,42.4,27.3,55,30.15,10.0,WNW,4.6,-,N/A,,Clear,300,2013-09-30 10:55:00
5:15 AM,43.2,26.6,52,30.15,10.0,West,3.5,-,N/A,,Clear,260,2013-09-30 11:15:00
5:35 AM,48.7,25.2,40,30.15,10.0,Calm,Calm,-,N/A,,Clear,0,2013-09-30 11:35:00
6:50 AM,46.4,26.6,46,30.15,10.0,NW,8.1,-,N/A,,Partly Cloudy,310,2013-09-30 12:50:00
7:50 AM,46.4,30.2,53,30.16,10.0,Calm,Calm,-,N/A,,Partly Cloudy,0,2013-09-30 13:50:00
8:50 AM,57.2,28.4,33,30.16,10.0,Variable,4.6,-,N/A,,Partly Cloudy,0,2013-09-30 14:50:00
9:50 AM,60.8,28.4,29,30.17,10.0,Calm,Calm,-,N/A,,Partly Cloudy,0,2013-09-30 15:50:00
10:50 AM,66.2,30.2,26,30.15,10.0,Calm,Calm,-,N/A,,Partly Cloudy,0,2013-09-30 16:50:00
11:50 AM,68.0,33.8,28,30.14,10.0,Variable,6.9,-,N/A,,Clear,0,2013-09-30 17:50:00
12:50 PM,73.4,30.2,20,30.12,10.0,NNW,10.4,-,N/A,,Clear,330,2013-09-30 18:50:00
1:50 PM,75.2,32.0,21,30.09,10.0,WSW,6.9,-,N/A,,Clear,250,2013-09-30 19:50:00
2:50 PM,77.0,30.2,18,30.06,10.0,Variable,5.8,-,N/A,,Clear,0,2013-09-30 20:50:00
3:50 PM,77.0,28.4,17,30.04,10.0,Calm,Calm,-,N/A,,Clear,0,2013-09-30 21:50:00
4:50 PM,78.8,26.6,15,30.03,10.0,Calm,Calm,-,N/A,,Clear,0,2013-09-30 22:50:00
5:50 PM,77.0,26.6,16,30.02,10.0,NW,11.5,18.4,N/A,,Clear,310,2013-09-30 23:50:00
6:50 PM,71.6,26.6,19,30.03,10.0,WNW,8.1,-,N/A,,Clear,300,2013-10-01 00:50:00
7:50 PM,62.6,28.4,27,30.05,10.0,NW,8.1,-,N/A,,Clear,310,2013-10-01 01:50:00
8:50 PM,62.6,24.8,24,30.06,10.0,NW,6.9,-,N/A,,Clear,320,2013-10-01 02:50:00
9:50 PM,57.2,24.8,29,30.07,10.0,WNW,9.2,-,N/A,,Clear,290,2013-10-01 03:50:00
10:15 PM,56.1,27.1,33,30.08,10.0,WNW,10.4,-,N/A,,Clear,290,2013-10-01 04:15:00
10:35 PM,55.9,27.5,34,30.08,10.0,WNW,10.4,-,N/A,,Clear,290,2013-10-01 04:35:00
10:55 PM,56.5,28.0,34,30.08,10.0,WNW,9.2,-,N/A,,Clear,300,2013-10-01 04:55:00
11:15 PM,54.5,28.4,37,30.08,10.0,WNW,9.2,-,N/A,,Clear,300,2013-10-01 05:15:00
11:35 PM,53.8,28.2,37,30.07,10.0,WNW,9.2,-,N/A,,Clear,290,2013-10-01 05:35:00
11:55 PM,53.2,28.2,38,30.07,10.0,WNW,8.1,-,N/A,,Clear,300,2013-10-01 05:55:00